Location: *
(45.9500°N, 9.0833°E)
Time: 15:19:30
(UTC+00:00)

Cosmos 1470 Rocket - Pass Details

Date: 03 March 2021
Orbit: 603 x 634 km, 82.5° (Epoch: 14 April)

Event Time Altitude Azimuth Distance (km) Brightness Sun altitude
Rises 18:34:53 0° 195° (SSW) 2,917 7.1 -15.0°
Reaches altitude 10° 18:37:08 10° 199° (SSW) 2,012 6.3 -15.4°
Maximum altitude 18:41:34 64° 280° (W) 703 4.1 -16.1°
Drops below altitude 10° 18:46:01 10° 3° (N) 2,015 6.2 -16.9°
Sets 18:48:16 0° 7° (N) 2,922 7.1 -17.3°
